Location: Unspecified
(35.6961°N, 0.0000°E)
Time: 01:36:25
(UTC+00:00)

S-56A Canister/Altair - Pass Details

Date: 07 October 2020
Orbit: 632 x 2500 km, 38.9° (Epoch: 20 October)

Event Time Altitude Azimuth Distance (km) Brightness Sun altitude
Rises 18:38:32 0° 291° (WNW) 6,152 13.6 -13.8°
Reaches altitude 10° 18:43:07 10° 285° (WNW) 5,046 13.0 -14.7°
Maximum altitude 18:55:26 38° 225° (SW) 2,835 10.7 -17.2°
Drops below altitude 10° 19:04:48 10° 162° (SSE) 3,819 10.8 -19.1°
Sets 19:07:47 0° 154° (SSE) 4,551 11.2 -19.7°
Enters shadow 19:07:56 - 153° (SSE) 4,588 11.2 -19.7°
